Flag for Germany Weather past 2 weeks in Bad Hersfeld, Hesse, Germany

Now
64 °F

Thunderstorms. Partly sunny.


Feels Like: 64 °F
Forecast: 54 / 74 °F
Wind: 15 mph from Northeast

Location: Fritzlar Airport

Current Time: Jul 24, 2014 at 6:24:02 PM

Latest Report: Jul 24, 2014 at 5:20 PM


Visibility: N/A

Pressure: 29.98 "Hg

Humidity: 78%

Dew point: 57 °F

Location of Bad HersfeldLocation

Historic Weather in Bad Hersfeld — Graph

°F

Bad Hersfeld temperature yesterday

Maximum temperature yesterday: 81 °F (at 2:20 PM)
Minimum temperature yesterday: 63 °F (at 5:20 AM)
Average temperature yesterday: 72 °F

Past Weeks' High & Low Weather Summary

 TemperatureHumidityPressure
High88 °F (Jul 19, 2:20 PM)100% (Jul 10, 5:20 AM)30.21 "Hg (Jul 10, 5:20 AM)
Low55 °F (Jul 10, 5:20 AM)33% (Jul 19, 3:20 PM)29.65 "Hg (Jul 9, 5:00 PM)
Average68 °F74%29.96 "Hg
* Reported Jul 9 5:00 PM — Jul 24 5:00 PM, Bad Hersfeld, Weather by CustomWeather, © 2014

Note: Actual official high and low records may vary slightly from our data, if they occured in-between our weather recording intervals... More about our weather records

Advertising

Bad Hersfeld weather history for previous 24 hours

 ConditionsComfort  
Time TempWeatherWind HumidityBarometerVisibility
5:00 PM
Jul 24
72 °FThunderstorms. Scattered clouds.16 mph57%29.98 "HgN/A
4:20 PM75 °FScattered clouds.12 mph50%29.95 "HgN/A
3:20 PM73 °FScattered clouds.10 mph53%29.98 "HgN/A
2:20 PM77 °FScattered clouds.10 mph47%29.98 "HgN/A
1:20 PM75 °FScattered clouds.8 mph50%29.98 "HgN/A
12:20 PM73 °FScattered clouds.8 mph53%29.98 "HgN/A
11:20 AM70 °FScattered clouds.8 mph60%30.01 "HgN/A
10:20 AM72 °FScattered clouds.7 mph57%30.01 "HgN/A
9:20 AM66 °FPassing clouds.5 mph68%30.01 "HgN/A
8:20 AM66 °FPassing clouds.6 mph64%30.01 "HgN/A
7:20 AM61 °FPassing clouds.5 mph83%30.01 "HgN/A
6:20 AM57 °FPassing clouds.5 mph88%30.01 "HgN/A
5:20 AM59 °FPassing clouds.3 mph82%30.01 "HgN/A
4:20 AM59 °FPassing clouds.6 mph88%29.98 "HgN/A
3:20 AM61 °FCool.8 mph83%30.01 "HgN/A
2:20 AM61 °FCool.6 mph83%30.01 "HgN/A
1:20 AM63 °FPassing clouds.5 mph77%30.01 "HgN/A
12:20 AM64 °FPassing clouds.6 mph73%30.04 "HgN/A
11:20 PM
Jul 23
63 °FPassing clouds.3 mph83%30.01 "HgN/A
10:20 PM72 °FPassing clouds.6 mph57%30.01 "HgN/A
9:20 PM75 °FPassing clouds.7 mph50%30.01 "HgN/A
8:20 PM77 °FPassing clouds.6 mph47%30.01 "HgN/A
7:20 PM79 °FPassing clouds.7 mph45%30.01 "HgN/A
6:20 PM79 °FScattered clouds.5 mph51%30.01 "HgN/A
Weather by CustomWeather, © 2014

See weather overviewHow to use our weather pages